SCOUT B DEB, 28795

Orbit data source: Space-Track

SCOUT B DEB, 28795 is space debris in LEO originally from a launch on Tue, 10 Aug 1965 UTC launched from the Wallops Island (WLPIS). Debris objects in space refer to the collection of defunct objects orbiting the Earth. Examples of debris include non-operational satellites, rocket bodies, and fragments generated from explosions, collisions, or faulty payload assembly.

Loading next visibility...
Identifier
28795, 1965-063E
Orbit
LEO
Country
Flag of USUS
Related business
Manufacturer
Unknown
Mission
Spacecraft
Bus & Motor
Unknown
Mass
Unknown
Launch date (UTC)
1965-08-10 (60 years ago)
Launch vehicle
Unknown
Launch site
Wallops Island (WLPIS)
Object type
Payload
Rocket body
Debris
Shape & HBR
Unknown
Radar Cross Section
Small (<0.1 m²)

Expand to show TLE details & history
Last TLE update: 3 weeks ago

TLE from 3 weeks ago
0 SCOUT B DEB
1 28795U 65063E   25238.26499354  .00000005  00000-0  26693-3 0  9997
2 28795  69.2201 245.9568 0757567  10.4450   8.2402 11.81767867176803
Epoch: 2025-08-26T06:21Z
TLE epoch observation values (Epoch: 2025-08-26T06:21:35.441Z)
Latitude
18.71384°
Longitude
-176.853°
Altitude
1,155.686 km
Speed
7.544 km/s
True Right ascension
16h 53m 12s
True Declination
18° 36' 54"
Sunlit
Object was in daylight at epoch
Visualization orbit readout
Latitude
Unknown
Longitude
Unknown
Altitude
Unknown
Speed
Unknown
Apparent Right ascension
Unknown
Apparent Declination
Unknown
Sunlit
N/A
Visualization observer readout
Local Sidereal Time
15:03:07
Azimuth
Unknown
Elevation
Unknown
Doppler factor
Unknown
Orbital elements
Apogee altitude
2,378.503 km
Perigee altitude
1,145.186 km
Semi-major axis
8,139.982 km
Eccentricity
0.07576
Inclination
69.2201°
RAAN
245.9568°
Arg. of periapsis
10.445°
True anomaly
9.61233°
Mean anomaly
8.2402°
Eccentric anomaly
8.91268°
Mean motion
2.95534 °/min
Orbital period
121.81 mins
BSTAR
0.00026693
Loading maneuver chart data...
Computing Atmospheric mass density...
Loading historical data...
Loading historical data...
Loading historical data...
Loading historical data...
Loading historical data...
Loading historical data...
Loading historical data...

Documentation

Showing up to 5 results
|